Arlington, TX

8:29 AM CDT on July 26, 2016 (GMT -0500)
Grand Prairie Municipal

Weather History for KGPM - December, 2013

Change the Weather History Date:

Saturday, December 14, 2013

  Actual Average (KDFW) Record (KDFW)
Temperature  
Mean Temperature 40 °F 47 °F  
Max Temperature 46 °F 57 °F 80 °F (1995)
Min Temperature 33 °F 37 °F 14 °F (1901)
Degree Days  
Heating Degree Days 26 18  
Month to date heating degree days 232  
Since 1 July heating degree days 586  
Cooling Degree Days 0 0  
Month to date cooling degree days 0  
Year to date cooling degree days 2752  
Moisture  
Dew Point 36 °F    
Average Humidity 84    
Maximum Humidity 100    
Minimum Humidity 57    
Precipitation  
Precipitation 0.00 in 0.08 in 1.67 in (1992)
Month to date precipitation 1.19  
Year to date precipitation 34.78  
Snow  
Snow 0.00 in 0.00 in 0.10 in (1901)
Month to date snowfall 0.1  
Since 1 July snowfall 0.1  
Snow Depth -    
Sea Level Pressure  
Sea Level Pressure 30.08 in    
Wind  
Wind Speed 6 mph (WNW)    
Max Wind Speed 16 mph    
Max Gust Speed 21 mph    
Visibility 6 miles    
Events      
T = Trace of Precipitation, MM = Missing Value Source: NWS Daily Summary

Daily Weather History Graph

Daily Weather History Graph

Search for Another Location

Airport or City:

Trip Planner

Search our weather history database for the weather conditions in past years. The results will help you decide how hot, cold, wet, or windy it might be!

Date:

Astronomy

Dec. 14, 2013 Rise Set
Actual Time 7:22 AM CST 5:23 PM CST
Civil Twilight 6:55 AM CST 5:50 PM CST
Nautical Twilight 6:24 AM CST 6:21 PM CST
Astronomical Twilight 5:54 AM CST 6:51 PM CST
Moon 3:41 PM CST (12/14) 4:50 AM CST (12/14)
Length of Visible Light 10h 55m
Length of Day
10h 01m
Waxing Gibbous, 94% of the Moon is Illuminated
Dec 14
Waxing Gibbous
Dec 17
Full
Dec 25
Last Quarter
Jan 1
New
Jan 7
First Quarter

Hourly Weather History & Observations

Time (CST) Temp. Windchill Dew Point Humidity Pressure Visibility Wind Dir Wind Speed Gust Speed Precip Events Conditions
12:15 AM 46.4 °F 42.4 °F 44.6 °F 93% 29.83 in 1.5 mi SSW 8.1 mph - N/A   Overcast
12:35 AM 46.4 °F 41.5 °F 44.6 °F 93% 29.82 in 2.0 mi SSW 10.4 mph - N/A   Overcast
12:55 AM 44.6 °F 40.2 °F 44.6 °F 100% 29.82 in 2.5 mi South 8.1 mph - N/A   Overcast
1:15 AM 44.6 °F 40.2 °F 44.6 °F 100% 29.81 in 2.5 mi SSW 8.1 mph - N/A   Unknown
1:35 AM 44.6 °F 40.7 °F 44.6 °F 100% 29.81 in 3.0 mi SSW 6.9 mph - N/A   Unknown
1:55 AM 44.6 °F 40.2 °F 44.6 °F 100% 29.81 in 3.0 mi SSW 8.1 mph - N/A   Unknown
2:15 AM 44.6 °F 40.7 °F 44.6 °F 100% 29.81 in 4.0 mi SSW 6.9 mph - N/A   Clear
2:35 AM 44.6 °F 42.2 °F 42.8 °F 93% 29.80 in 5.0 mi SSW 4.6 mph - N/A   Clear
2:55 AM 44.6 °F - 42.8 °F 93% 29.81 in 7.0 mi Calm Calm - N/A   Clear
3:15 AM 42.8 °F - 42.8 °F 100% 29.83 in 5.0 mi Calm Calm - N/A   Clear
3:35 AM 42.8 °F - 42.8 °F 100% 29.83 in 4.0 mi Calm Calm - N/A   Clear
3:55 AM 41.0 °F - 41.0 °F 100% 29.84 in 2.5 mi Calm Calm - N/A   Clear
4:15 AM 42.8 °F - 42.8 °F 100% 29.84 in 5.0 mi Calm Calm - N/A   Clear
4:35 AM 42.8 °F 39.3 °F 42.8 °F 100% 29.85 in 10.0 mi West 5.8 mph - N/A   Clear
4:55 AM 42.8 °F 37.5 °F 42.8 °F 100% 29.86 in 10.0 mi NW 9.2 mph - N/A   Scattered Clouds
5:15 AM 42.8 °F 39.3 °F 42.8 °F 100% 29.88 in 0.8 mi NW 5.8 mph - N/A   Overcast
5:35 AM 42.8 °F 38.6 °F 42.8 °F 100% 29.89 in 0.5 mi NW 6.9 mph - N/A   Overcast
5:55 AM 42.8 °F 38.6 °F 42.8 °F 100% 29.91 in 0.8 mi NW 6.9 mph - N/A   Overcast
8:50 AM 42.8 °F 35.1 °F 42.8 °F 100% 30.04 in 4.0 mi North 16.1 mph 20.7 mph N/A   Overcast
9:50 AM 44.6 °F 40.7 °F 41.0 °F 87% 30.14 in 5.0 mi NW 6.9 mph - N/A   Scattered Clouds
10:50 AM 42.8 °F 36.6 °F 37.4 °F 81% 30.18 in 4.0 mi NW 11.5 mph 20.7 mph N/A   Overcast
11:50 AM 42.8 °F 36.2 °F 33.8 °F 70% 30.20 in 5.0 mi WNW 12.7 mph 20.7 mph N/A   Overcast
12:50 PM 39.2 °F 32.0 °F 32.0 °F 75% 30.22 in 5.0 mi NW 11.5 mph 20.7 mph N/A   Overcast
1:55 PM 39.2 °F 33.0 °F 30.2 °F 70% 30.23 in 7.0 mi NW 9.2 mph 18.4 mph N/A   Overcast
2:55 PM 41.0 °F 34.3 °F 28.4 °F 61% 30.24 in 7.0 mi NW 11.5 mph 20.7 mph N/A   Scattered Clouds
3:55 PM 42.8 °F 37.5 °F 28.4 °F 57% 30.25 in 10.0 mi NNW 9.2 mph 19.6 mph N/A   Clear
4:55 PM 42.8 °F 38.6 °F 28.4 °F 57% 30.26 in 10.0 mi NNW 6.9 mph - N/A   Clear
5:50 PM 41.0 °F 36.4 °F 26.6 °F 57% 30.27 in 10.0 mi NNW 6.9 mph - N/A   Clear
8:15 PM 37.4 °F 34.9 °F 28.4 °F 70% 30.33 in 10.0 mi NNW 3.5 mph - N/A   Clear
8:35 PM 37.4 °F - 28.4 °F 70% 30.34 in 10.0 mi Calm Calm - N/A   Clear
8:55 PM 37.4 °F - 28.4 °F 70% 30.34 in 10.0 mi Calm Calm - N/A   Clear
9:15 PM 35.6 °F - 28.4 °F 75% 30.35 in 10.0 mi Calm Calm - N/A   Clear
9:35 PM 35.6 °F - 28.4 °F 75% 30.35 in 10.0 mi Calm Calm - N/A   Clear
9:55 PM 35.6 °F - 28.4 °F 75% 30.36 in 10.0 mi Calm Calm - N/A   Clear
10:15 PM 35.6 °F - 28.4 °F 75% 30.36 in 10.0 mi Calm Calm - N/A   Clear
10:35 PM 35.6 °F 32.8 °F 28.4 °F 75% 30.35 in 10.0 mi North 3.5 mph - N/A   Clear
10:55 PM 35.6 °F - 28.4 °F 75% 30.36 in 10.0 mi Calm Calm - N/A   Clear
11:15 PM 35.6 °F 32.8 °F 28.4 °F 75% 30.36 in 10.0 mi NNW 3.5 mph - N/A   Clear
11:35 PM 33.8 °F - 26.6 °F 75% 30.36 in 7.0 mi Calm Calm - N/A   Clear
11:55 PM 33.8 °F - 28.4 °F 81% 30.36 in 7.0 mi Calm Calm - N/A   Clear